Location: Appeville
(49.3218°N, 1.3427°W)
Time: 00:44:01
(UTC+00:00)

PAYLOAD B - Visible Passes

Search period start: 03 April 2020 00:00
Search period end: 13 April 2020 00:00
Orbit: 848 x 872 km, 99.1° (Epoch: 02 April)

Date Brightness Start Highest point End Pass type
(mag) Time Alt. Az. Time Alt. Az. Time Alt. Az.
05 Apr 6.3 05:01:24 10° NNE 05:06:19 32° E 05:11:13 10° SSE visible
06 Apr 6.6 04:52:33 10° NE 04:57:14 28° E 05:01:54 10° SSE visible
07 Apr 6.8 04:43:46 10° NE 04:48:08 24° E 04:52:30 10° SE visible
08 Apr 6.9 04:35:02 10° NE 04:39:01 20° E 04:43:01 10° SE visible
09 Apr 7.0 04:26:23 10° NE 04:29:55 17° E 04:33:25 10° SE visible
10 Apr 7.2 04:17:52 10° NE 04:20:46 14° E 04:23:40 10° ESE visible
11 Apr 7.3 04:09:36 10° ENE 04:11:37 12° E 04:13:38 10° ESE visible
